TimeAKST,TemperatureF,Dew PointF,Humidity,Sea Level PressureIn,VisibilityMPH,Wind Direction,Wind SpeedMPH,Gust SpeedMPH,PrecipitationIn,Events,Conditions,WindDirDegrees,DateUTC
12:53 AM,-27.0,-33.0,73,30.17,10.0,Calm,Calm,-,N/A,,Clear,0,2013-03-02 09:53:00
1:53 AM,-29.9,-9999,N/A,30.16,10.0,Calm,Calm,-,N/A,,Clear,0,2013-03-02 10:53:00
3:53 AM,-26.0,-29.9,81,30.16,10.0,ESE,5.8,-,N/A,,Clear,110,2013-03-02 12:53:00
4:53 AM,-32.1,-9999,N/A,30.15,10.0,Calm,Calm,-,N/A,,Clear,0,2013-03-02 13:53:00
5:53 AM,-33.0,-9999,N/A,30.16,10.0,ENE,3.5,-,N/A,,Clear,60,2013-03-02 14:53:00
6:53 AM,-27.9,-32.1,81,30.17,10.0,NE,4.6,-,N/A,,Clear,50,2013-03-02 15:53:00
7:53 AM,-29.0,-33.0,81,30.16,9.0,East,8.1,-,N/A,,Clear,90,2013-03-02 16:53:00
8:53 AM,-27.0,-33.0,73,30.17,8.0,East,9.2,-,N/A,,Clear,100,2013-03-02 17:53:00
9:53 AM,-25.1,-31.0,74,30.20,10.0,East,3.5,-,N/A,,Clear,90,2013-03-02 18:53:00
10:53 AM,-20.9,-25.1,81,30.20,10.0,East,4.6,-,N/A,,Clear,80,2013-03-02 19:53:00
11:53 AM,-20.0,-26.0,74,30.22,10.0,NE,6.9,-,N/A,,Clear,50,2013-03-02 20:53:00
12:53 PM,-18.0,-24.0,74,30.20,10.0,ENE,8.1,-,N/A,,Clear,60,2013-03-02 21:53:00
1:53 PM,-15.0,-20.9,75,30.22,10.0,Calm,Calm,-,N/A,,Clear,0,2013-03-02 22:53:00
2:53 PM,-15.0,-20.9,75,30.21,9.0,NE,4.6,-,0.00,,Clear,40,2013-03-02 23:53:00
3:53 PM,-14.1,-20.0,75,30.19,10.0,ENE,6.9,-,N/A,,Clear,60,2013-03-03 00:53:00
4:53 PM,-13.0,-18.9,75,30.20,10.0,ENE,5.8,-,N/A,,Clear,70,2013-03-03 01:53:00
5:53 PM,-11.0,-18.0,71,30.20,10.0,ENE,4.6,-,N/A,,Clear,70,2013-03-03 02:53:00
6:53 PM,-9.9,-17.0,71,30.20,10.0,ENE,3.5,-,N/A,,Clear,60,2013-03-03 03:53:00
7:53 PM,-16.1,-20.9,79,30.19,10.0,NE,5.8,-,N/A,,Clear,50,2013-03-03 04:53:00
8:53 PM,-15.0,-20.9,75,30.19,10.0,ENE,8.1,-,N/A,,Clear,60,2013-03-03 05:53:00
9:53 PM,-11.0,-17.0,75,30.17,10.0,NE,11.5,-,N/A,,Clear,50,2013-03-03 06:53:00
10:53 PM,-11.0,-16.1,78,30.17,10.0,ENE,9.2,-,N/A,,Clear,60,2013-03-03 07:53:00
11:53 PM,-8.0,-14.1,75,30.18,10.0,Variable,3.5,-,N/A,,Clear,0,2013-03-03 08:53:00